« Back
NWS Peachtree City, Ga » Text Product » GA Regional Weather Roundup


Printer-friendly Version
Current Version              Previous Versions:   1  2  3  4  5  6  7  8  9  

Regional Weather Roundup

501
ASUS42 KFFC 241603
RWRGA
WEATHER ROUNDUP FOR GEORGIA
NATIONAL WEATHER SERVICE PEACHTREE CITY GA
1200 PM EDT THU APR 24 2014

NOTE: "FAIR" INDICATES FEW OR NO CLOUDS BELOW 12,000 FEET WITH NO
SIGNIFICANT WEATHER AND/OR OBSTRUCTIONS TO VISIBILITY.

* = USE WITH CAUTION. THE STATIONS MARKED WITH AN ASTERISK MAY NOT
REPORT WEATHER SUCH AS PRECIPITATION, FOG, OR THUNDER AND ARE NOT
QUALITY CONTROLLED BY NWS.

THE REMARK "TC" DENOTES TEMPERATURE READING IN DEGREES CELSIUS.

GAZ001>058-241700-
NORTH GEORGIA

CITY           SKY/WX    TMP DP  RH WIND       PRES   REMARKS
ATLANTA        MOSUNNY   68  43  40 NE7       30.06S
ATHENS         SUNNY     69  39  33 VRB6      30.08F
CHAMBLEE       SUNNY     66  37  34 CALM      30.07R
PEACHTREE CITY SUNNY     72  45  37 VRB3      30.05S
ROME           SUNNY     70  42  36 SE8       30.03F
WEST ATLANTA   SUNNY     70  41  34 E7        30.05F
GAINESVILLE    SUNNY     66  36  32 E10       30.10F
CARTERSVILLE   SUNNY     69  41  36 VRB7      30.05F


CITY           SKY/WX    TMP DP  RH WIND       PRES   REMARKS
DALTON*        SUNNY     70  37  30 SE9       30.04F
LAWRENCEVILLE* SUNNY     66  37  34 E12       30.08S
MARIETTA       MOSUNNY   69  40  34 VRB7      30.06F
KENNESAW*      SUNNY     68  41  37 SE6       30.08S
$$

GAZ059>098-102>109-241700-
CENTRAL GEORGIA

CITY           SKY/WX    TMP DP  RH WIND       PRES   REMARKS
AUGUSTA-BUSH   SUNNY     74  40  29 E9        30.06F
AUGUSTA-DANIEL SUNNY     73  38  27 SE10      30.07F
COLUMBUS       SUNNY     77  47  34 CALM      30.02S
MACON          SUNNY     76  50  40 CALM      30.03F
ROBINS AFB     SUNNY     77  51  40 VRB2      30.03S


CITY           SKY/WX    TMP DP  RH WIND       PRES   REMARKS
LAGRANGE*      MOSUNNY   76  49  39 SE5       30.03F
SYLVANIA*      SUNNY     76  59  55 E5        30.05F
MILLEDGEVILLE* SUNNY     77  32  19 CALM      30.04F
$$

GAZ099>101-110>166-241700-
SOUTH GEORGIA

CITY           SKY/WX    TMP DP  RH WIND       PRES   REMARKS
SAVANNAH       MOSUNNY   80  62  54 VRB6      30.03F
VALDOSTA       MOSUNNY   85  61  44 VRB3      30.02S
ALMA           SUNNY     81  53  37 VRB3      30.02S
ST SIMONS      MOSUNNY   75  65  70 E6        30.03S
FT STEWART     SUNNY     80  61  52 VRB2      30.01S
ALBANY         MOSUNNY   77  54  44 SE5       30.03F
HUNTER AFB     SUNNY     79  64  60 E8        30.01F
MOODY AFB      SUNNY     82  66  57 S8        30.01F
BRUNSWICK      MOSUNNY   81  57  44 E3        30.03F


CITY           SKY/WX    TMP DP  RH WIND       PRES   REMARKS
BAINBRIDGE*    SUNNY     81  64  57 CALM      30.00F
MOULTRIE*      SUNNY     79  63  57 SE5       30.02F
VIDALIA*       SUNNY     75  57  53 E3        30.04S
DOUGLAS*       CLOUDY    79  59  50 CALM      30.04S
$$



USA.gov is the U.S. government's official web portal to all federal, state and local government web resources and services.